Regional Weather Roundup
Issued by NWS San Diego, CA

Home | Current Version | Previous Version | Text Only | Print | Product List | Glossary On
Versions: 1 2 3 4 5 6 7 8 9 10 11 12 13 14 15 16 17 18 19 20 21 22 23 24 25 26 27
000
ASUS46 KSGX 040811
RWRSGX

SAN DIEGO HOURLY WEATHER ROUNDUP
NATIONAL WEATHER SERVICE SAN DIEGO CA
1200 AM PST SUN DEC 04 2016

NOTE: "FAIR" INDICATES FEW OR NO CLOUDS BELOW 12,000 FEET WITH NO
SIGNIFICANT WEATHER AND/OR OBSTRUCTIONS TO VISIBILITY.

CAZ042-043-060-061-PZZ750-775-040900-

GREATER SAN DIEGO AREA

CITY           SKY/WX    TMP DP  RH WIND       PRES   REMARKS
SAN DIEGO AP   CLEAR     52  30  43 CALM      30.08S
NATIONAL CITY    N/A     47  35  61 CALM      30.08R
CHULA VISTA      N/A     46  36  66 E1        29.99F
IMPERIAL BEACH CLEAR     51  37  58 E8        30.07S
BROWN FIELD    CLEAR     45  36  70 SE6       30.06S
MIRAMAR MCAS   CLEAR     48  33  56 E3        30.06S
MONTGOMERY FLD CLEAR     46  30  53 CALM      30.07S

$$

NORTH SAN DIEGO COUNTY

CITY           SKY/WX    TMP DP  RH WIND       PRES   REMARKS
CAMP PENDLETON CLEAR     37  28  70 N3        30.07F
OCEANSIDE AP   CLEAR     41  31  67 CALM      30.07S
OCEANSIDE HBR    N/A     47  32  56 NE3       30.09S
VISTA            N/A     45  32  60 CALM      30.05S
CARLSBAD       CLEAR     49  30  48 CALM      30.06S
DEL MAR          N/A     52  31  45 CALM      30.09S
LA JOLLA SCRIP   N/A     55  33  43 NE3       30.06S
FALLBROOK        N/A     51  27  39 CALM      30.05S
ESCONDIDO        N/A     45  31  58 CALM      30.09S
SAN MARCOS       N/A     52  28  40 CALM      30.09S
POWAY            N/A     41  32  69 CALM      30.10S

$$

EAST SAN DIEGO COUNTY

CITY           SKY/WX    TMP DP  RH WIND       PRES   REMARKS
RAMONA         CLEAR     32  27  81 CALM      30.07S
SANTEE LAKES     N/A     42  34  72 CALM      30.07F
LA MESA          N/A     51  33  51 CALM      30.01S
JAMUL            N/A     43  32  64 CALM      30.09S
DESCANSO N       N/A     57  17  21 E17       30.04S
CAMPO            N/A     57  14  18 N21G26    30.04S

$$

ORANGE COUNTY AND THE LOS ANGELES BASIN

CITY           SKY/WX    TMP DP  RH WIND       PRES   REMARKS
JOHN WAYNE AP  CLEAR     49  33  54 NE3       30.06S
LAGUNA BEACH     N/A     45  36  71 CALM      30.02R
LAKE FOREST FR   N/A     51  18  27 CALM      29.95S
HUNTINGTON BCH   N/A     45  40  83 CALM      30.08R
LOS ALAMITOS   FAIR      46  37  71 CALM      30.06R
FULLERTON      CLEAR     47  25  42 CALM      30.06R
LONG BEACH     CLEAR     50  31  48 CALM      30.06S
L.A. AP        CLEAR     54  29  38 E5        30.06F
L.A. DOWNTOWN  CLEAR     49  32  52 CALM      30.05F

$$

THE INLAND EMPIRE

CITY           SKY/WX    TMP DP  RH WIND       PRES   REMARKS
CORONA         CLEAR     41  27  57 CALM      30.07S
CHINO          CLEAR     48  27  44 N3        30.07F
ONTARIO        CLEAR     50  22  33 CALM      30.07R
SAN BERNARDINO FAIR      46  26  46 NE7       30.08S
RIVERSIDE AP   CLEAR     56  22  26 SE5       30.07S
MORENO VALLEY    N/A     54  28  37 E3        28.20S
MARCH ARB      CLEAR     39  26  60 CALM      30.08S
HORSETHIEF CYN   N/A     50  15  24 CALM      30.12S
PERRIS           N/A     46  29  52 CALM      30.11S
HEMET EAST       N/A     49  12  22 CALM      30.17S
FRENCH VALLEY  NOT AVBL
TEMECULA         N/A     43  31  61 CALM      30.14R

$$

SAN BERNARDINO AND RIVERSIDE COUNTY MOUNTAINS

CITY           SKY/WX    TMP DP  RH WIND       PRES   REMARKS
BIG BEAR AP    CLEAR     37   5  25 E5        30.25F WCI  34
PINE COVE        N/A     49   7  18 E3        30.16F

$$

SOUTHERN DESERT INCLUDING THE COACHELLA VALLEY

CITY           SKY/WX    TMP DP  RH WIND       PRES   REMARKS
PALM SPRINGS   CLEAR     58  21  24 SW3       30.09S
PALM DESERT      N/A     51  28  41 CALM        N/A
THERMAL        CLEAR     45  18  34 CALM      30.05S
BLYTHE         CLEAR     56  10  16 N13       30.08S
IMPERIAL AP    CLEAR     46  17  31 W8        30.06S
EL CENTRO NAS  CLEAR     47   7  19 SW7       30.09R
YUMA AZ        CLEAR     57   6  13 NW9       30.05
MEXICALI       CLEAR     52   7  16 NW7       30.06F

$$

UPPER DESERT

CITY           SKY/WX    TMP DP  RH WIND       PRES   REMARKS
VICTORVILLE AP   N/A     39   0  19 CALM      30.19S
HESPERIA         N/A     37   9  31 W2        30.38S
PALMDALE       CLEAR     34  13  41 SW3       30.20S
LANCASTER      CLEAR     31   9  39 W3        30.20F
EDWARDS AFB    CLEAR     29   8  40 S5        30.18S WCI  24
DAGGETT        CLEAR     42   7  23 NW9       30.18S
29 PALMS N     CLEAR     48  13  24 W9        30.21S
NEEDLES        CLEAR     54  13  19 NW6       30.13R

$$

REGIONAL REPORTS

CITY           SKY/WX    TMP DP  RH WIND       PRES   REMARKS
SANTA BARBARA  CLEAR     40  37  89 N3        30.07F
LAS VEGAS NV   CLEAR     44  12  27 SW3       30.19S
PHOENIX AZ     CLEAR     52  26  36 NW5       30.02R
TIJUANA        CLEAR     50  34  53 CALM      30.09R
ENSENADA NW      N/A     56  32  40 NE3       30.04S

$$

OFFSHORE ISLANDS

CITY           SKY/WX    TMP DP  RH WIND       PRES   REMARKS
CATALINA ARPT  CLEAR     64   9  11 NW6       30.09S
SAN NICOLAS IS CLEAR     55  48  77 W12       30.07S

$$

MARINE AND OFFSHORE BUOY REPORTS

STATION/POSITION SKY/WX   TEMP    WIND        PRES    SWELL
                          AIR SEA DIR/SP/G            HT/PER/DIR
                          (F)     (DEG/KT/KT) (MB)    (FT/S/D)
TANNER BANKS               60 62  320/ 14/ 16 1018.5S   8/320/19
S CLEMENTE BASIN           60 60  300/ 10/ 12 1018.1S   5/330/19
SAN NICOLAS IS.               59                N/A     7/310/20
SO. S. ROSA ISLA           58 58  310/ 19/ 23 1018.2S   8/300/19
W. S. BARBARA CH           58 58  330/ 19/ 21 1018.5F   7/290/19
M. S. BARBARA CH                                N/A     3/280/19
S. MONICA BASIN            60 60  320/  6/  8 1017.5S   3/280/19
S PEDRO CHANNEL               61                N/A     2/270/20
CMP PENDLETON NS              60                N/A     2/210/15
OCEANSIDE OFFSHR              62                N/A     2/190/15
TORREY PINES OTR              62                N/A     2/260/20
POINT LOMA SOUTH              61                N/A     3/280/20

$$





USA.gov is the U.S. government's official web portal to all federal, state and local government web resources and services.